| time (UTC) | temp F | wind direction | speed MPH | gust MPH | rain 1hr in | rain 24hr in | rain mn in | humidity % | barometer mb |
| 20260906140108 | 77 | 0 | 0.0 | 2.0 | 0.00 | 0.07 | 0.00 | 92 | 1014.7 |
| 20260906134618 | 75 | 0 | 0.0 | 0.0 | 0.00 | 0.07 | 0.00 | 96 | 1014.6 |
| 20260906133119 | 74 | 0 | 0.0 | 0.0 | 0.00 | 0.07 | 0.00 | 96 | 1014.7 |
| 20260906131601 | 73 | 0 | 0.0 | 0.0 | 0.00 | 0.07 | 0.00 | 97 | 1014.8 |
| 20260906130114 | 73 | 0 | 0.0 | 0.0 | 0.00 | 0.07 | 0.00 | 97 | 1014.9 |
| 20260906124608 | 72 | 0 | 0.0 | 0.0 | 0.00 | 0.07 | 0.00 | 96 | 1014.9 |
| 20260906123108 | 71 | 0 | 0.0 | 0.0 | 0.00 | 0.07 | 0.00 | 96 | 1014.7 |
| 20260906121625 | 70 | 0 | 0.0 | 0.0 | 0.00 | 0.07 | 0.00 | 96 | 1014.7 |
| 20260906120110 | 70 | 0 | 0.0 | 0.0 | 0.00 | 0.07 | 0.00 | 96 | 1014.5 |
| 20260906114622 | 70 | 0 | 0.0 | 0.0 | 0.00 | 0.07 | 0.00 | 96 | 1014.5 |
| 20260906113114 | 70 | 0 | 0.0 | 0.0 | 0.00 | 0.07 | 0.00 | 96 | 1014.6 |
| 20260906111558 | 70 | 0 | 0.0 | 0.0 | 0.00 | 0.07 | 0.00 | 96 | 1014.4 |
| 20260906110108 | 70 | 0 | 0.0 | 0.0 | 0.00 | 0.07 | 0.00 | 96 | 1014.3 |
| 20260906104604 | 70 | 0 | 0.0 | 0.0 | 0.00 | 0.07 | 0.00 | 95 | 1014.4 |
| 20260906103106 | 70 | 0 | 0.0 | 0.0 | 0.00 | 0.07 | 0.00 | 95 | 1014.3 |
| 20260906101606 | 70 | 0 | 0.0 | 0.0 | 0.00 | 0.07 | 0.00 | 95 | 1014.2 |
| 20260906100112 | 70 | 0 | 0.0 | 0.0 | 0.00 | 0.07 | 0.00 | 95 | 1014.1 |
| 20260906094601 | 70 | 0 | 0.0 | 0.0 | 0.00 | 0.07 | 0.00 | 95 | 1014.1 |
| 20260906093109 | 70 | 0 | 0.0 | 0.0 | 0.00 | 0.07 | 0.00 | 95 | 1013.9 |
| 20260906091619 | 70 | 0 | 0.0 | 0.0 | 0.00 | 0.07 | 0.00 | 95 | 1013.9 |
| 20260906090111 | 70 | 0 | 0.0 | 0.0 | 0.00 | 0.07 | 0.00 | 95 | 1014.1 |
| 20260906084605 | 71 | 0 | 0.0 | 0.0 | 0.00 | 0.07 | 0.00 | 95 | 1014.1 |
| 20260906083058 | 71 | 0 | 0.0 | 0.0 | 0.00 | 0.07 | 0.00 | 95 | 1014.0 |
| 20260906081604 | 71 | 0 | 0.0 | 0.0 | 0.00 | 0.07 | 0.00 | 95 | 1013.8 |
| 20260906080111 | 71 | 0 | 0.0 | 0.0 | 0.00 | 0.07 | 0.00 | 95 | 1013.6 |
| 20260906074601 | 71 | 0 | 0.0 | 0.0 | 0.00 | 0.07 | 0.00 | 95 | 1013.7 |
| 20260906073104 | 71 | 0 | 0.0 | 0.0 | 0.00 | 0.07 | 0.00 | 95 | 1013.8 |
| 20260906071616 | 71 | 0 | 0.0 | 0.0 | 0.00 | 0.07 | 0.00 | 95 | 1013.8 |
| 20260906070109 | 71 | 0 | 0.0 | 0.0 | 0.00 | 0.07 | 0.00 | 95 | 1013.7 |
| 20260906064602 | 71 | 0 | 0.0 | 0.0 | 0.00 | 0.07 | 0.00 | 95 | 1013.9 |
| 20260906063106 | 72 | 0 | 0.0 | 0.0 | 0.00 | 0.07 | 0.00 | 94 | 1014.1 |
| 20260906061606 | 72 | 0 | 0.0 | 0.0 | 0.00 | 0.07 | 0.00 | 95 | 1014.2 |
| 20260906060155 | 72 | 0 | 0.0 | 0.0 | 0.00 | 0.07 | 0.00 | 95 | 1014.3 |
| 20260906054616 | 72 | 0 | 0.0 | 0.0 | 0.00 | 0.07 | 0.00 | 95 | 1014.2 |
| 20260906053105 | 72 | 0 | 0.0 | 0.0 | 0.00 | 0.07 | 0.00 | 94 | 1014.2 |
| 20260906051606 | 72 | 0 | 0.0 | 0.0 | 0.00 | 0.07 | 0.00 | 94 | 1014.4 |
| 20260906050116 | 72 | 0 | 0.0 | 0.0 | 0.00 | 0.07 | 0.00 | 94 | 1014.3 |
| 20260906044558 | 72 | 0 | 0.0 | 0.0 | 0.00 | 0.07 | 0.00 | 94 | 1014.3 |
| 20260906043112 | 72 | 0 | 0.0 | 0.0 | 0.00 | 0.07 | 0.00 | 94 | 1014.3 |
| 20260906041604 | 72 | 0 | 0.0 | 0.0 | 0.00 | 0.07 | 0.00 | 94 | 1014.2 |
| 20260906040106 | 72 | 0 | 0.0 | 0.0 | 0.00 | 0.07 | 0.00 | 93 | 1014.2 |
| 20260906034603 | 72 | 0 | 0.0 | 0.0 | 0.01 | 0.07 | 0.07 | 93 | 1014.3 |
| 20260906033107 | 72 | 0 | 0.0 | 0.0 | 0.05 | 0.07 | 0.07 | 93 | 1014.3 |
| 20260906031630 | 72 | 0 | 0.0 | 0.0 | 0.06 | 0.07 | 0.07 | 93 | 1014.6 |
| 20260906030104 | 72 | 0 | 0.0 | 0.0 | 0.07 | 0.07 | 0.07 | 92 | 1015.0 |
| 20260906024605 | 73 | 0 | 0.0 | 1.0 | 0.06 | 0.06 | 0.06 | 92 | 1015.6 |
| 20260906023113 | 73 | 0 | 0.0 | 1.0 | 0.02 | 0.02 | 0.02 | 90 | 1015.4 |
| 20260906021610 | 75 | 0 | 0.0 | 0.0 | 0.01 | 0.01 | 0.01 | 86 | 1015.5 |
| 20260906020109 | 77 | 0 | 1.0 | 5.0 | 0.00 | 0.00 | 0.00 | 81 | 1015.2 |
| 20260906014611 | 77 | 0 | 0.0 | 0.0 | 0.00 | 0.00 | 0.00 | 82 | 1015.6 |
| 20260906013108 | 77 | 0 | 0.0 | 0.0 | 0.00 | 0.00 | 0.00 | 81 | 1014.7 |
| 20260906011614 | 77 | 0 | 0.0 | 0.0 | 0.00 | 0.00 | 0.00 | 81 | 1014.7 |
| 20260906010109 | 77 | 0 | 0.0 | 0.0 | 0.00 | 0.00 | 0.00 | 81 | 1014.5 |
| 20260906004608 | 78 | 141 | 0.0 | 0.0 | 0.00 | 0.00 | 0.00 | 80 | 1014.1 |
| 20260906003105 | 80 | 0 | 1.0 | 3.0 | 0.00 | 0.00 | 0.00 | 78 | 1013.7 |
| 20260906001611 | 81 | 0 | 1.0 | 5.0 | 0.00 | 0.00 | 0.00 | 75 | 1014.2 |
| 20260906000110 | 83 | 119 | 3.0 | 8.0 | 0.00 | 0.00 | 0.00 | 72 | 1014.3 |
| 20260905234601 | 85 | 159 | 0.0 | 2.0 | 0.00 | 0.00 | 0.00 | 76 | 1013.1 |
| 20260905233107 | 85 | 0 | 0.0 | 0.0 | 0.00 | 0.00 | 0.00 | 75 | 1012.8 |
| 20260905231619 | 86 | 0 | 0.0 | 1.0 | 0.00 | 0.00 | 0.00 | 74 | 1013.1 |
| 20260905230112 | 87 | 0 | 0.0 | 1.0 | 0.00 | 0.00 | 0.00 | 71 | 1013.2 |
| 20260905224606 | 88 | 212 | 0.0 | 3.0 | 0.00 | 0.00 | 0.00 | 70 | 1013.4 |
| 20260905223105 | 90 | 202 | 0.0 | 3.0 | 0.00 | 0.00 | 0.00 | 69 | 1013.3 |
| 20260905221631 | 91 | 198 | 0.0 | 3.0 | 0.00 | 0.00 | 0.00 | 68 | 1013.2 |
| 20260905220111 | 93 | 0 | 0.0 | 2.0 | 0.00 | 0.00 | 0.00 | 65 | 1013.1 |
| 20260905214608 | 93 | 210 | 1.0 | 3.0 | 0.00 | 0.00 | 0.00 | 64 | 1013.1 |
| 20260905213106 | 94 | 0 | 1.0 | 4.0 | 0.00 | 0.00 | 0.00 | 64 | 1013.2 |
| 20260905211605 | 94 | 196 | 0.0 | 4.0 | 0.00 | 0.00 | 0.00 | 62 | 1013.0 |
| 20260905210116 | 94 | 205 | 1.0 | 7.0 | 0.00 | 0.00 | 0.00 | 61 | 1013.0 |
| 20260905204612 | 96 | 154 | 1.0 | 4.0 | 0.00 | 0.00 | 0.00 | 61 | 1013.2 |
| 20260905203102 | 97 | 231 | 1.0 | 3.0 | 0.00 | 0.00 | 0.00 | 52 | 1013.1 |
| 20260905201610 | 96 | 0 | 0.0 | 1.0 | 0.00 | 0.00 | 0.00 | 53 | 1013.4 |
| 20260905200130 | 96 | 0 | 0.0 | 1.0 | 0.00 | 0.00 | 0.00 | 53 | 1013.6 |
| 20260905194604 | 98 | 0 | 0.0 | 4.0 | 0.00 | 0.00 | 0.00 | 49 | 1013.9 |
| 20260905193058 | 98 | 136 | 1.0 | 3.0 | 0.00 | 0.00 | 0.00 | 51 | 1014.0 |
| 20260905191557 | 96 | 211 | 2.0 | 4.0 | 0.00 | 0.00 | 0.00 | 52 | 1014.1 |
| 20260905190104 | 95 | 216 | 2.0 | 3.0 | 0.00 | 0.00 | 0.00 | 52 | 1014.2 |
| 20260905184609 | 94 | 0 | 0.0 | 2.0 | 0.00 | 0.00 | 0.00 | 59 | 1014.2 |
| 20260905183105 | 95 | 136 | 0.0 | 4.0 | 0.00 | 0.00 | 0.00 | 56 | 1014.2 |
| 20260905181603 | 95 | 0 | 0.0 | 0.0 | 0.00 | 0.00 | 0.00 | 55 | 1014.5 |
| 20260905180116 | 95 | 229 | 0.0 | 3.0 | 0.00 | 0.00 | 0.00 | 57 | 1014.7 |
| 20260905174600 | 95 | 106 | 1.0 | 4.0 | 0.00 | 0.00 | 0.00 | 52 | 1014.9 |
| 20260905173131 | 96 | 179 | 1.0 | 3.0 | 0.00 | 0.00 | 0.00 | 52 | 1015.0 |
| 20260905171606 | 95 | 183 | 1.0 | 4.0 | 0.00 | 0.00 | 0.00 | 57 | 1015.3 |
| 20260905170106 | 93 | 156 | 0.0 | 3.0 | 0.00 | 0.00 | 0.00 | 57 | 1015.5 |
| 20260905164615 | 91 | 203 | 0.0 | 3.0 | 0.00 | 0.00 | 0.00 | 63 | 1015.7 |
| 20260905163111 | 91 | 142 | 1.0 | 4.0 | 0.00 | 0.00 | 0.00 | 61 | 1015.9 |
| 20260905161608 | 91 | 210 | 0.0 | 3.0 | 0.00 | 0.00 | 0.00 | 60 | 1016.1 |
| 20260905160106 | 90 | 153 | 1.0 | 4.0 | 0.00 | 0.00 | 0.00 | 62 | 1016.0 |
| 20260905154606 | 89 | 157 | 1.0 | 6.0 | 0.00 | 0.00 | 0.00 | 63 | 1016.1 |
| 20260905153104 | 88 | 0 | 1.0 | 4.0 | 0.00 | 0.00 | 0.00 | 65 | 1016.2 |
| 20260905151605 | 88 | 0 | 1.0 | 4.0 | 0.00 | 0.00 | 0.00 | 67 | 1016.4 |
| 20260905150104 | 86 | 0 | 0.0 | 3.0 | 0.00 | 0.00 | 0.00 | 70 | 1016.2 |
| 20260905144605 | 85 | 0 | 0.0 | 3.0 | 0.00 | 0.00 | 0.00 | 71 | 1016.4 |
| 20260905143105 | 84 | 0 | 0.0 | 2.0 | 0.00 | 0.00 | 0.00 | 74 | 1016.6 |
| 20260905141605 | 82 | 169 | 1.0 | 3.0 | 0.00 | 0.00 | 0.00 | 82 | 1016.6 |